FW2861 Weather Reports


time (UTC)temp
F
wind
direction
speed
knots
gust
knots
rain 1hr
in
rain 24hr
in
rain mn
in
humidity
%
barometer
mb
20260504041852 43 271 0.9 3.5 0.00 0.00 0.00 60 1008.0
20260504041351 43 250 0.9 2.6 0.00 0.00 0.00 60 1008.0
20260504040851 43 0 1.7 3.5 0.00 0.00 0.00 59 1008.0
20260504040350 43 259 1.7 4.3 0.00 0.00 0.00 59 1008.0
20260504035850 44 256 1.7 4.3 0.00 0.00 0.00 59 1007.9
20260504035350 44 253 1.7 2.6 0.00 0.00 0.00 61 1007.8
20260504034850 44 239 1.7 3.5 0.00 0.00 0.00 61 1007.7
20260504034352 45 0 1.7 4.3 0.00 0.00 0.00 57 1007.8
20260504033351 45 248 3.5 5.2 0.00 0.00 0.00 56 1007.8
20260504032847 45 251 3.5 5.2 0.00 0.00 0.00 55 1007.8
20260504032347 45 254 2.6 5.2 0.00 0.00 0.00 55 1007.8
20260504031347 46 255 3.5 5.2 0.00 0.00 0.00 54 1007.8
20260504030847 46 268 3.5 5.2 0.00 0.00 0.00 54 1007.8
20260504030347 46 243 2.6 5.2 0.00 0.00 0.00 53 1007.7
20260504025848 46 256 2.6 5.2 0.00 0.00 0.00 53 1007.7
20260504025348 46 245 3.5 5.2 0.00 0.00 0.00 53 1007.6
20260504024348 46 252 2.6 5.2 0.00 0.00 0.00 53 1007.6
20260504023848 46 254 2.6 5.2 0.00 0.00 0.00 53 1007.6
20260504023344 46 263 2.6 5.2 0.00 0.00 0.00 53 1007.6
20260504022845 46 255 2.6 5.2 0.00 0.00 0.00 53 1007.6
20260504022345 47 245 2.6 5.2 0.00 0.00 0.00 53 1007.5
20260504021845 46 261 3.5 5.2 0.00 0.00 0.00 52 1007.5
20260504021344 46 258 2.6 4.3 0.00 0.00 0.00 54 1007.5
20260504020845 46 299 2.6 4.3 0.00 0.00 0.00 57 1007.5
20260504020346 46 292 1.7 3.5 0.00 0.00 0.00 57 1007.4
20260504015846 46 276 1.7 3.5 0.00 0.00 0.00 57 1007.4
20260504015347 47 261 1.7 3.5 0.00 0.00 0.00 56 1007.3
20260504014847 47 248 1.7 3.5 0.00 0.00 0.00 54 1007.4
20260504014347 47 236 1.7 3.5 0.00 0.00 0.00 50 1007.3
20260504013847 48 256 1.7 3.5 0.00 0.00 0.00 50 1007.3
20260504012843 48 252 1.7 3.5 0.00 0.00 0.00 49 1007.2
20260504012343 48 252 1.7 3.5 0.00 0.00 0.00 47 1007.2
20260504011841 48 231 0.9 3.5 0.00 0.00 0.00 46 1007.1
20260504010842 49 278 0.9 3.5 0.00 0.00 0.00 45 1007.0
20260504010341 49 0 1.7 3.5 0.00 0.00 0.00 45 1007.0
20260504005841 49 264 0.9 3.5 0.00 0.00 0.00 45 1006.9
20260504005341 49 232 0.9 3.5 0.00 0.00 0.00 44 1006.8
20260504004842 49 0 0.9 3.5 0.00 0.00 0.00 45 1006.7
20260504003342 50 0 0.9 4.3 0.00 0.00 0.00 44 1006.5
20260504002837 50 240 1.7 4.3 0.00 0.00 0.00 43 1006.5
20260504002338 51 226 0.9 4.3 0.00 0.00 0.00 43 1006.4
20260504001839 51 262 0.9 4.3 0.00 0.00 0.00 43 1006.4
20260504000841 51 0 1.7 5.2 0.00 0.00 0.00 42 1006.3
20260504000340 51 0 1.7 5.2 0.00 0.00 0.00 42 1006.3
20260503235841 51 227 1.7 5.2 0.00 0.00 0.00 42 1006.2
20260503235341 51 209 1.7 3.5 0.00 0.00 0.00 42 1006.1
20260503234836 51 232 1.7 5.2 0.00 0.00 0.00 42 1006.0
20260503234335 51 246 1.7 5.2 0.00 0.00 0.00 42 1006.0
20260503233330 52 192 0.9 5.2 0.00 0.00 0.00 42 1005.8
20260503232831 52 0 1.7 7.0 0.00 0.00 0.00 42 1005.7
20260503232332 52 251 1.7 7.0 0.00 0.00 0.00 42 1005.6
20260503231827 52 247 1.7 6.1 0.00 0.00 0.00 41 1005.6
20260503230828 52 205 2.6 7.8 0.00 0.00 0.00 41 1005.4
20260503230327 53 250 2.6 7.8 0.00 0.00 0.00 41 1005.4
20260503225828 53 260 1.7 6.1 0.00 0.00 0.00 41 1005.3
20260503225327 53 172 1.7 6.1 0.00 0.00 0.00 41 1005.3
20260503224327 53 186 1.7 6.1 0.00 0.00 0.00 41 1005.1
20260503223826 53 54 1.7 6.1 0.00 0.00 0.00 41 1005.1
20260503222825 53 60 1.7 6.1 0.00 0.00 0.00 42 1004.9
20260503221823 53 300 1.7 6.1 0.00 0.00 0.00 42 1004.8
20260503221323 53 10 1.7 6.1 0.00 0.00 0.00 42 1004.7
20260503220823 53 253 1.7 6.1 0.00 0.00 0.00 43 1004.5
20260503220324 53 297 1.7 7.0 0.00 0.00 0.00 41 1004.5
20260503215824 53 182 1.7 7.8 0.00 0.00 0.00 41 1004.5
20260503214822 54 145 2.6 7.8 0.00 0.00 0.00 42 1004.3
20260503214322 54 345 2.6 6.1 0.00 0.00 0.00 41 1004.2
20260503213821 54 81 2.6 7.8 0.00 0.00 0.00 41 1004.1
20260503212821 54 231 2.6 7.8 0.00 0.00 0.00 41 1004.1
20260503212322 54 216 1.7 7.0 0.00 0.00 0.00 42 1003.9
20260503211821 54 44 2.6 7.0 0.00 0.00 0.00 41 1003.8
20260503211321 54 187 1.7 6.1 0.00 0.00 0.00 40 1003.8
20260503210821 54 216 1.7 6.1 0.00 0.00 0.00 41 1003.7
20260503210321 54 216 1.7 6.1 0.00 0.00 0.00 42 1003.7
20260503205822 54 95 1.7 6.1 0.00 0.00 0.00 43 1003.6
20260503205322 54 209 1.7 6.1 0.00 0.00 0.00 42 1003.5
20260503204822 55 215 1.7 5.2 0.00 0.00 0.00 42 1003.6
20260503204321 54 60 1.7 5.2 0.00 0.00 0.00 43 1003.5
20260503203818 54 142 1.7 5.2 0.00 0.00 0.00 42 1003.5
20260503203319 54 235 1.7 6.1 0.00 0.00 0.00 45 1003.5
20260503202319 54 80 1.7 6.1 0.00 0.00 0.00 45 1003.5
20260503201815 54 25 1.7 7.0 0.00 0.00 0.00 45 1003.4
20260503201314 54 135 1.7 7.0 0.00 0.00 0.00 44 1003.3
20260503200815 54 152 1.7 6.1 0.00 0.00 0.00 44 1003.4
20260503200317 54 184 1.7 6.1 0.00 0.00 0.00 45 1003.3
20260503195816 55 111 2.6 7.8 0.00 0.00 0.00 43 1003.2
20260503195313 55 238 2.6 7.8 0.00 0.00 0.00 43 1003.3
20260503194811 56 146 1.7 7.8 0.00 0.00 0.00 44 1003.2
20260503194312 56 117 1.7 4.3 0.00 0.00 0.00 44 1003.4
20260503193811 56 0 1.7 5.2 0.00 0.00 0.00 45 1003.4
20260503193312 56 141 1.7 7.8 0.00 0.00 0.00 45 1003.4
20260503192806 55 81 2.6 8.7 0.00 0.00 0.00 44 1003.4
20260503192307 55 108 2.6 8.7 0.00 0.00 0.00 45 1003.4
20260503191806 55 160 1.7 5.2 0.00 0.00 0.00 47 1003.5
20260503191307 54 227 1.7 5.2 0.00 0.00 0.00 46 1003.5
20260503190807 54 4 1.7 5.2 0.00 0.00 0.00 49 1003.6
20260503190307 54 289 1.7 5.2 0.00 0.00 0.00 50 1003.5
20260503185807 53 196 1.7 5.2 0.00 0.00 0.00 51 1003.6
20260503185305 53 226 1.7 5.2 0.00 0.00 0.00 51 1003.6
20260503184306 52 331 1.7 5.2 0.00 0.01 0.00 52 1003.6
20260503183807 52 311 1.7 7.0 0.00 0.01 0.00 52 1003.6
20260503183306 53 238 1.7 7.0 0.00 0.01 0.00 52 1003.6
20260503182804 53 0 1.7 7.0 0.00 0.01 0.00 52 1003.6
20260503182305 53 259 1.7 7.0 0.00 0.02 0.00 50 1003.5
20260503181803 54 0 1.7 8.7 0.00 0.02 0.00 49 1003.6
20260503181304 54 217 1.7 8.7 0.00 0.02 0.00 49 1003.6
20260503180804 53 2 1.7 7.8 0.00 0.03 0.00 49 1003.5
20260503175802 53 83 1.7 5.2 0.00 0.03 0.00 48 1003.5
20260503175301 53 145 1.7 7.0 0.00 0.03 0.00 49 1003.6
20260503174801 53 20 1.7 7.0 0.00 0.03 0.00 48 1003.5
20260503174302 52 23 1.7 7.0 0.00 0.03 0.00 50 1003.6
20260503173800 51 201 1.7 7.0 0.00 0.03 0.00 53 1003.6
20260503173301 51 316 1.7 5.2 0.00 0.03 0.00 53 1003.6
20260503172758 51 38 1.7 6.1 0.00 0.03 0.00 57 1003.6
20260503172257 51 345 1.7 6.1 0.00 0.03 0.00 56 1003.6
20260503171756 51 176 1.7 5.2 0.00 0.03 0.00 56 1003.6
20260503171257 51 102 1.7 5.2 0.00 0.03 0.00 56 1003.6
20260503170757 51 311 1.7 5.2 0.00 0.03 0.00 57 1003.7
20260503170257 51 0 1.7 7.0 0.00 0.03 0.00 57 1003.6
20260503150735 48 56 1.7 7.0 0.00 0.04 0.00 72 1003.5
20260503150235 48 59 1.7 7.0 0.00 0.04 0.00 72 1003.6
20260503140229 47 235 1.7 5.2 0.00 0.04 0.00 79 1003.4
20260503131219 46 41 0.9 5.2 0.00 0.04 0.00 76 1003.6
20260503130718 46 194 1.7 5.2 0.00 0.05 0.00 76 1003.6
20260503130219 46 220 1.7 5.2 0.00 0.05 0.00 76 1003.6
20260503120213 46 238 1.7 6.1 0.00 0.05 0.00 74 1004.1
20260503110708 45 282 0.9 3.5 0.00 0.05 0.00 77 1004.3
20260503110208 45 244 0.9 3.5 0.00 0.05 0.00 76 1004.3
20260503090158 46 253 0.9 2.6 0.00 0.06 0.00 77 1004.7
20260503081151 47 27 0.9 4.3 0.00 0.06 0.00 76 1005.1
20260503080654 47 356 0.9 5.2 0.00 0.06 0.00 76 1005.3
20260503080148 47 299 0.9 5.2 0.00 0.06 0.00 76 1005.5
20260503072642 47 0 0.9 4.3 0.00 0.06 0.00 77 1005.7
20260503072143 47 0 0.9 4.3 0.00 0.06 0.00 78 1005.6
20260503071643 47 112 0.9 2.6 0.00 0.06 0.00 78 1005.7
20260503070137 48 219 0.9 3.5 0.00 0.06 0.00 77 1006.0
20260503060136 49 0 0.9 4.3 0.00 0.06 0.00 74 1006.6
20260503054633 49 150 0.9 3.5 0.00 0.06 0.00 72 1006.6
20260503054134 50 0 0.9 3.5 0.00 0.06 0.00 72 1006.6
20260503053631 50 307 0.9 4.3 0.00 0.06 0.00 73 1006.6
20260503053133 50 33 0.9 4.3 0.00 0.06 0.00 74 1006.6
20260503052631 50 282 0.9 4.3 0.00 0.06 0.00 75 1006.7
20260503052131 50 0 0.9 2.6 0.00 0.06 0.00 76 1006.7
20260503051631 50 0 0.9 3.5 0.00 0.06 0.00 74 1006.6
20260503051132 50 43 0.9 3.5 0.00 0.06 0.00 73 1006.8
20260503050631 50 274 0.9 3.5 0.00 0.06 0.00 72 1007.0
20260503050133 50 326 0.9 3.5 0.00 0.06 0.00 72 1007.1
20260503045132 50 2 0.9 5.2 0.00 0.06 0.00 73 1007.2
20260503044129 50 263 0.9 3.5 0.00 0.06 0.00 78 1007.2
20260503043629 51 0 0.9 3.5 0.00 0.06 0.00 78 1007.3
20260503043129 51 0 0.9 3.5 0.00 0.06 0.00 81 1007.3
20260503042630 50 259 0.9 3.5 0.00 0.06 0.00 82 1007.6